Location: Alexo
(52.4665°N, 115.7844°W)
Time: 05:37:23
(UTC+00:00)

N. Korean satellite - Visible Passes

Search period start: 28 November 2021 00:00
Search period end: 08 December 2021 00:00
Orbit: 447 x 495 km, 97.3° (Epoch: 27 November)

Date Brightness Start Highest point End Pass type
(mag) Time Alt. Az. Time Alt. Az. Time Alt. Az.
28 Nov 9.7 01:06:58 10° SW 01:09:22 17° W 01:11:45 10° NW visible
28 Nov 8.8 12:25:03 10° NE 12:27:56 24° E 12:30:46 10° SSE visible
28 Nov 7.3 13:58:09 10° N 14:01:09 28° WNW 14:04:07 10° SW visible
29 Nov 8.6 00:37:28 10° SSW 00:40:43 32° W 00:43:56 10° NNW visible
29 Nov 9.8 11:57:38 10° ENE 11:59:13 13° E 12:00:47 10° ESE visible
29 Nov 6.4 13:29:25 10° N 13:32:48 58° WNW 13:36:08 10° SSW visible
30 Nov 7.0 00:08:36 10° S 00:12:10 68° WSW 00:15:41 10° NNW visible
30 Nov 6.8 13:00:55 10° NNE 13:04:20 63° ESE 13:07:41 10° S visible
30 Nov 8.2 14:35:22 10° NNW 14:37:05 13° WNW 14:38:49 10° W visible
01 Dec 9.8 01:15:18 10° WSW 01:17:14 14° W 01:19:10 10° NW visible
01 Dec 8.4 12:32:42 10° NNE 12:35:45 29° E 12:38:45 10° SSE visible
01 Dec 7.5 14:06:04 10° N 14:08:52 24° WNW 14:11:38 10° WSW visible
02 Dec 9.0 00:45:29 10° SSW 00:48:31 26° W 00:51:33 10° NW visible
02 Dec 9.5 12:04:58 10° NE 12:07:02 15° E 12:09:05 10° SE visible
02 Dec 6.6 13:37:13 10° N 13:40:31 47° WNW 13:43:46 10° SW visible
03 Dec 7.4 00:16:26 10° S 00:19:55 54° W 00:23:22 10° NNW visible
03 Dec 6.4 13:08:38 10° NNE 13:12:03 79° ESE 13:15:26 10° S visible
03 Dec 8.4 14:43:35 10° NW 14:44:43 11° WNW 14:45:51 10° WNW visible
04 Dec 10.0 01:23:47 10° WSW 01:25:02 11° W 01:26:17 10° WNW visible
04 Dec 8.0 12:40:18 10° NNE 12:43:28 36° E 12:46:37 10° SSE visible
04 Dec 7.7 14:13:55 10° NNW 14:16:30 20° WNW 14:19:03 10° WSW visible
05 Dec 9.3 00:53:28 10° SSW 00:56:16 22° W 00:59:04 10° NW visible
05 Dec 9.2 12:12:21 10° NE 12:14:46 18° E 12:17:11 10° SE visible
05 Dec 6.8 13:44:58 10° N 13:48:09 38° WNW 13:51:19 10° SW visible
06 Dec 7.9 00:24:14 10° S 00:27:36 44° W 00:30:58 10° NNW visible
06 Dec 6.2 13:16:17 10° NNE 13:19:42 84° WNW 13:23:04 10° SSW visible
07 Dec 7.5 12:47:50 10° NNE 12:51:07 44° E 12:54:22 10° S visible
07 Dec 7.9 14:21:43 10° NNW 14:24:02 17° WNW 14:26:20 10° WSW visible
